Location: Unspecified
(35.7250°N, 0.0000°E)
Time: 20:24:59
(UTC+00:00)

Courier 1B Rocket - Pass Details

Date: 22 August 2020
Orbit: 920 x 1202 km, 28.2° (Epoch: 01 October)

Event Time Altitude Azimuth Distance (km) Brightness Sun altitude
Exits shadow 03:59:28 12° 194° (SSW) 2,446 6.7 -16.9°
Drops below altitude 10° 04:01:01 10° 180° (S) 2,632 7.0 -16.6°
Sets 04:05:17 0° 154° (SSE) 3,617 8.0 -15.8°
